Location: Ladrillo (historical)
(32.8195°N, 117.2231°W)
Time: 15:44:42
(UTC+00:00)

Vanguard 3 - Visible Passes

Search period start: 27 February 2021 00:00
Search period end: 09 March 2021 00:00
Orbit: 508 x 3261 km, 33.3° (Epoch: 26 February)

Date Brightness Start Highest point End Pass type
(mag) Time Alt. Az. Time Alt. Az. Time Alt. Az.
27 Feb 8.1 03:24:26 10° W 03:37:02 88° N 03:39:41 48° E visible
27 Feb 9.9 05:41:24 10° W 05:44:14 20° W 05:44:14 20° W visible
28 Feb 8.9 02:06:24 10° W 02:21:51 88° N 02:29:51 12° E visible
28 Feb 8.1 04:24:28 10° W 04:34:25 68° WSW 04:34:25 68° WSW visible
01 Mar 8.5 03:06:51 10° W 03:20:32 89° S 03:24:35 35° E visible
01 Mar 9.6 05:24:17 10° W 05:29:09 27° W 05:29:09 27° W visible
02 Mar 9.1 01:48:39 10° W 02:05:07 87° N 02:14:15 10° E visible
02 Mar 8.1 04:07:00 10° WNW 04:18:45 69° SSW 04:19:21 67° S visible
03 Mar 8.7 02:49:10 10° W 03:03:55 86° SSW 03:09:32 25° ESE visible
03 Mar 9.3 05:07:03 10° W 05:14:06 34° WSW 05:14:06 34° WSW visible
04 Mar 8.3 03:49:26 10° WNW 04:02:10 64° SSW 04:04:19 50° SSE visible
04 Mar 10.4 06:08:08 10° W 06:08:54 11° W 06:08:54 11° W visible
05 Mar 9.0 02:31:26 10° W 02:47:12 83° SSW 02:54:33 17° ESE visible
05 Mar 9.1 04:49:44 10° W 04:59:08 36° SW 04:59:08 36° SW visible
06 Mar 8.8 03:31:47 10° WNW 03:45:26 60° SSW 03:49:24 34° SE visible
06 Mar 10.3 05:51:28 10° W 05:53:58 14° WSW 05:53:58 14° WSW visible
07 Mar 9.2 02:13:38 10° W 02:30:21 79° SSW 02:39:41 10° ESE visible
07 Mar 9.2 04:32:21 10° W 04:42:47 33° SW 04:44:16 32° SSW visible
08 Mar 9.3 03:14:04 10° WNW 03:28:34 56° SSW 03:34:35 22° SE visible
08 Mar 10.3 05:34:52 10° W 05:39:10 14° SW 05:39:10 14° SW visible
